CZ-6A DEB, 54284

Orbit data source: Space-Track

CZ-6A DEB, 54284 is space debris in SSO originally from a launch on Fri, 11 Nov 2022 UTC launched from the Taiyaun Space Center, China (TSC). Debris objects in space refer to the collection of defunct objects orbiting the Earth. Examples of debris include non-operational satellites, rocket bodies, and fragments generated from explosions, collisions, or faulty payload assembly.

Loading next visibility...
Identifier
54284, 2022-151AB
Orbit
SSO
Country
Flag of CNCN / PRC
Related business
Manufacturer
SAST
Mission
Spacecraft
Bus & Motor
Unknown
Mass
Unknown
Launch date (UTC)
2022-11-11 (4 years ago)
Launch vehicle
Unknown
Launch site
Taiyaun Space Center, China (TSC)
Object type
Payload
Rocket body
Debris
Shape & HBR
Unknown shape, 0.1 m
Radar Cross Section
Medium (>0.1 m² and <1 m²)

Expand to show TLE details & history
Last TLE update: 2 days ago

TLE from 2 days ago
0 CZ-6A DEB
1 54284U 22151AB  26206.00164868  .00001651  00000-0  83710-3 0  9998
2 54284  98.8294 211.8209 0041026 209.5040 150.3819 14.16983416190180
Epoch: 2026-07-25T00:02Z
TLE epoch observation values (Epoch: 2026-07-25T00:02:22.445Z)
Latitude
-0.00004°
Longitude
-91.49281°
Altitude
864.242 km
Speed
7.407 km/s
True Right ascension
14h 07m 17s
True Declination
0° 00' 00"
Sunlit
Object was in daylight at epoch
Visualization orbit readout
Latitude
Unknown
Longitude
Unknown
Altitude
Unknown
Speed
Unknown
Apparent Right ascension
Unknown
Apparent Declination
Unknown
Sunlit
N/A
Visualization observer readout
Local Sidereal Time
10:41:16
Azimuth
Unknown
Elevation
Unknown
Doppler factor
Unknown
Orbital elements
Apogee altitude
862.324 km
Perigee altitude
803.158 km
Semi-major axis
7,210.878 km
Eccentricity
0.0041
Inclination
98.8294°
RAAN
211.8209°
Arg. of periapsis
209.504°
True anomaly
150.61321°
Mean anomaly
150.3819°
Eccentric anomaly
150.49766°
Mean motion
3.54455 °/min
Orbital period
101.56 mins
BSTAR
0.0008371
Loading maneuver chart data...
Computing Atmospheric mass density...
Loading historical data...
Loading historical data...
Loading historical data...
Loading historical data...
Loading historical data...
Loading historical data...
Loading historical data...

Documentation

Showing up to 5 results
|